BLOCK DM R/B, 26769

Orbit data source: Space-Track

BLOCK DM R/B, 26769 is space debris in HEO originally from a launch on Tue, 15 May 2001 UTC launched from the Tyuratam Missile And Space Complex (TTMTR). Debris objects in space refer to the collection of defunct objects orbiting the Earth. Examples of debris include non-operational satellites, rocket bodies, and fragments generated from explosions, collisions, or faulty payload assembly.

Loading next visibility...
Identifier
26769, 2001-019D
Orbit
HEO
Country
Flag of CISCIS
Related business
Manufacturer
RKKE
Mission
Spacecraft
Bus & Motor
BLOK DM2, Unknown motor
Mass
2,560 kg wet, 2,560 kg dry
Launch date (UTC)
2001-05-15 (25 years ago)
Launch vehicle
Unknown
Launch site
Tyuratam Missile And Space Complex (TTMTR)
Object type
Payload
Rocket body
Debris
Shape & HBR
Cyl + 1 Nozzle, 3.7 m
Radar Cross Section
23.684 m², Large (>1 m²)

Expand to show TLE details & history
Last TLE update: 2 weeks ago

TLE from 2 weeks ago
0 BLOCK DM R/B
1 26769U 01019D   26240.33876935 -.00000166  00000-0  00000+0 0  9992
2 26769  18.6009 356.3026 5174063  15.3933   1.6952  1.86699252172495
Epoch: 2026-08-28T08:07Z
TLE epoch observation values (Epoch: 2026-08-28T08:07:49.671Z)
Latitude
6.94596°
Longitude
-81.05493°
Altitude
7,090.991 km
Speed
6.699 km/s
True Right ascension
01h 09m 51s
True Declination
6° 55' 27"
Sunlit
Object was in daylight at epoch
Visualization orbit readout
Latitude
Unknown
Longitude
Unknown
Altitude
Unknown
Speed
Unknown
Apparent Right ascension
Unknown
Apparent Declination
Unknown
Sunlit
N/A
Visualization observer readout
Local Sidereal Time
14:33:13
Azimuth
Unknown
Elevation
Unknown
Doppler factor
Unknown
Orbital elements
Apogee altitude
35,899.327 km
Perigee altitude
7,067.726 km
Semi-major axis
27,861.664 km
Eccentricity
0.51741
Inclination
18.6009°
RAAN
356.3026°
Arg. of periapsis
15.3933°
True anomaly
6.22039°
Mean anomaly
1.6952°
Eccentric anomaly
3.51033°
Mean motion
0.46669 °/min
Orbital period
771.38 mins
BSTAR
0
Loading maneuver chart data...
Computing Atmospheric mass density...
Loading historical data...
Loading historical data...
Loading historical data...
Loading historical data...
Loading historical data...
Loading historical data...
Loading historical data...
Other satellites on launch #19 in the year 2001 (2001-05-15 UTC)

Documentation

Showing up to 5 results
|